Regional Weather Roundup
Issued by NWS Goodland, KS

Home | Current Version | Previous Version | Graphics & Text | Print | Product List | Glossary On
Versions: 1 2 3 4 5 6 7 8 9 10 11 12 13 14 15 16 17 18 19 20 21 22 23 24 25 26 27 28 29 30 31 32 33 34 35 36 37 38 39 40 41 42 43 44 45 46 47 48 49 50
000
ASUS43 KGLD 160108
RWRGLD

GOODLAND FORECAST AREA HOURLY WEATHER ROUNDUP
NATIONAL WEATHER SERVICE GOODLAND KS
700 PM MDT MON SEP 15 2014

...OFFICIAL OBSERVATIONS...

CITY           SKY/WX    TMP DP  RH WIND       PRES   REMARKS
GOODLAND KS    CLEAR     60  50  69 SE7       30.26F
HILL CITY KS   CLEAR     62  44  51 NE7       30.24S
IMPERIAL NEB   CLEAR     62  45  53 S8        30.24S
MCCOOK NEB     CLEAR     60  45  57 E7        30.24F
AKRON CO       CLEAR     60  50  69 S13       30.25F
BURLINGTON CO  CLEAR     60  49  66 SE6       30.28R
LIMON CO       CLEAR     59  50  72 SE13      30.30S
$$

...UNOFFICIAL OBSERVATIONS...

CITY           SKY/WX    TMP DP  RH WIND       PRES   REMARKS
COLBY KS       CLEAR     61  50  67 E6        30.25S HAZE
GOVE KS          N/A     62  32  32 MISG        N/A
NORTON KS      CLEAR     57  39  51 E5        30.23F
SHARON SPRINGS   N/A     62  53  73 CALM        N/A
WAKEENEY KS      N/A     61  41  46 MISG        N/A
TRENTON NEB      N/A     60  32  34 CALM        N/A
YUMA CO          N/A     60  49  66 CALM        N/A
$$


USA.gov is the U.S. government's official web portal to all federal, state and local government web resources and services.